Location: Central Falls
(41.8900°N, 71.3929°W)
Time: 14:12:01
(UTC+00:00)

Vanguard 1 - Pass Details

Date: 11 December 2023
Orbit: 653 x 3826 km, 34.3° (Epoch: 24 February)

Event Time Altitude Azimuth Distance (km) Brightness Sun altitude
Rises 18:37:34 0° 191° (SSW) 4,091 14.6 19.5°
Reaches altitude 10° 18:40:54 10° 174° (S) 3,525 13.9 19.2°
Maximum altitude 18:47:16 20° 131° (SE) 3,525 13.1 18.6°
Drops below altitude 10° 18:56:22 10° 91° (E) 5,287 13.5 17.7°
Sets 19:03:07 0° 78° (ENE) 6,919 14.0 17.0°
